Home   Weather   Ahmedabad   Past weeks

Flag for India Past Weather in Ahmedabad, Gujarat, India — Yesterday and Last 2 Weeks

Now
70 °F

Passing clouds.


Feels Like: 70 °F
Forecast: 63 / 83 °F
Wind: 3 mph from Northeast

Location: Ahmadabad Airport

Current Time: Jan 19, 2017 at 8:46:00 pm

Latest Report: Jan 19, 2017 at 8:00 pm


Visibility: 2 mi

Pressure: 30.07 "Hg

Humidity: 50%

Dew Point: 50 °F

Location of AhmedabadLocation

Past Weather in Ahmedabad — Graph

°F

Ahmedabad Temperature Yesterday

Maximum temperature yesterday: 81 °F (at 3:30 pm)
Minimum temperature yesterday: 54 °F (at 4:30 am)
Average temperature yesterday: 66 °F

High & Low Weather Summary for the Past Weeks

 TemperatureHumidityPressure
High86 °F (Jan 5, 2:30 pm)94% (Jan 6, 6:30 am)30.15 "Hg (Jan 6, 6:30 am)
Low52 °F (Jan 11, 7:00 am)21% (Jan 13, 3:00 pm)29.80 "Hg (Jan 7, 2:30 pm)
Average67 °F54%29.97 "Hg
* Reported Jan 4 7:30 pm — Jan 19 7:30 pm, Ahmedabad, Weather by CustomWeather, © 2017

Note: Actual official high and low records may vary slightly from our data, if they occured in-between our weather recording intervals... More about our weather records

Advertising

Ahmedabad Weather History for the Previous 24 Hours

Scroll right to see more
 ConditionsComfort  
Time TempWeatherWind HumidityBarometerVisibility
7:30 pm
Thu, Jan 19
72 °FPassing clouds.7 mph47%30.07 "Hg2 mi
7:00 pm73 °FPassing clouds.5 mph44%30.04 "Hg2 mi
6:30 pm73 °FPassing clouds.6 mph47%30.04 "Hg2 mi
6:00 pm75 °FPassing clouds.7 mph44%30.04 "Hg2 mi
5:30 pm75 °FPassing clouds.7 mph44%30.01 "Hg2 mi
4:00 pm77 °FClear.10 mph42%30.01 "Hg2 mi
3:30 pm77 °FClear.13 mph42%30.01 "Hg2 mi
3:00 pm79 °FClear.10 mph39%30.04 "Hg2 mi
2:30 pm77 °FClear.8 mph42%30.04 "Hg2 mi
2:00 pm77 °FClear.8 mph42%30.04 "Hg2 mi
1:30 pm77 °FClear.13 mph42%30.07 "Hg2 mi
1:00 pm77 °FClear.12 mph42%30.09 "Hg2 mi
12:30 pm75 °FClear.12 mph41%30.09 "Hg2 mi
12:00 pm73 °FClear.14 mph44%30.12 "Hg2 mi
10:30 am70 °FClear.10 mph50%30.15 "Hg2 mi
10:00 am68 °FClear.13 mph49%30.15 "Hg2 mi
9:30 am64 °FClear.9 mph56%30.15 "Hg1 mi
9:00 am63 °FHaze.9 mph59%30.15 "Hg1 mi
8:30 am61 °FHaze.9 mph63%30.15 "Hg1 mi
8:00 am59 °FHaze.6 mph68%30.12 "Hg1 mi
7:30 am57 °FHaze.6 mph72%30.12 "Hg1 mi
7:00 am57 °FHaze.5 mph72%30.09 "Hg1 mi
6:30 am59 °FHaze.6 mph68%30.09 "Hg2 mi
6:00 am57 °FHaze.6 mph72%30.07 "Hg2 mi
5:30 am59 °FHaze.8 mph68%30.07 "Hg2 mi
5:00 am59 °FHaze.7 mph63%30.07 "Hg2 mi
4:30 am59 °FHaze.5 mph63%30.04 "Hg2 mi
4:00 am61 °FHaze.5 mph59%30.07 "Hg2 mi
3:30 am61 °FClear.5 mph59%30.07 "Hg2 mi
3:00 am61 °FClear.6 mph59%30.07 "Hg2 mi
2:30 am59 °FClear.No wind63%30.07 "Hg2 mi
2:00 am59 °FClear.No wind63%30.09 "Hg2 mi
1:30 am59 °FClear.No wind63%30.09 "Hg2 mi
1:00 am59 °FClear.No wind63%30.09 "Hg2 mi
12:30 am61 °FClear.No wind63%30.09 "Hg2 mi
12:00 am63 °FClear.No wind56%30.09 "Hg2 mi
11:30 pm
Wed, Jan 18
63 °FClear.3 mph56%30.09 "Hg2 mi
11:00 pm63 °FClear.2 mph56%30.09 "Hg2 mi
10:30 pm64 °FClear.No wind56%30.09 "Hg2 mi
10:00 pm66 °FClear.3 mph49%30.09 "Hg2 mi
9:00 pm64 °FClear.3 mph49%30.09 "Hg2 mi
8:30 pm68 °FClear.3 mph43%30.07 "Hg2 mi
8:00 pm68 °FClear.No wind49%30.07 "Hg2 mi
Weather by CustomWeather, © 2017

See weather overviewHow to use our weather pages